Goderich, Ontario

7:18 PM EDT on June 24, 2017 (GMT -0400)
Goderich

Weather History for CWGD - May, 2013

Change the Weather History Date:

Sunday, May 19, 2013

  Actual Average (KP58) Record (KP58)
Temperature  
Mean Temperature 68 °F -  
Max Temperature 79 °F 57 °F 84 °F (1998)
Min Temperature 56 °F 43 °F 33 °F (2002)
Cooling Degree Days 2    
Growing Degree Days 18 (Base 50)    
Moisture  
Dew Point 53 °F    
Average Humidity 58    
Maximum Humidity 73    
Minimum Humidity 36    
Precipitation  
Precipitation 0.00 in - - ()
Sea Level Pressure  
Sea Level Pressure 29.99 in    
Wind  
Wind Speed 10 mph ()    
Max Wind Speed 16 mph    
Max Gust Speed 20 mph    
Averages and records for this station are not official NWS values.
T = Trace of Precipitation, MM = Missing Value Source: Averaged Metar Reports

Daily Weather History Graph

Daily Weather History Graph

Search for Another Location

Airport or City:

Trip Planner

Search our weather history database for the weather conditions in past years. The results will help you decide how hot, cold, wet, or windy it might be!

Date:

Astronomy

May. 19, 2013 Rise Set
Actual Time 5:57 AM EDT 8:50 PM EDT
Civil Twilight 5:23 AM EDT 9:24 PM EDT
Nautical Twilight 4:40 AM EDT 10:07 PM EDT
Astronomical Twilight 3:50 AM EDT 10:57 PM EDT
Moon 2:42 PM EDT (5/19) 2:32 AM EDT (5/19)
Length of Visible Light 16h 00m
Length of Day
14h 52m
Waxing Gibbous, 65% of the Moon is Illuminated
May 19
Waxing Gibbous
May 25
Full
May 31
Last Quarter
Jun 8
New
Jun 16
First Quarter

Hourly Weather History & Observations

Time (EDT) Temp. Dew Point Humidity Pressure Visibility Wind Dir Wind Speed Gust Speed Precip Events Conditions
12:00 AM 60.3 °F 35.4 °F 39% 30.06 in - ESE 16.1 mph - N/A   Unknown
1:00 AM 59.4 °F 35.8 °F 41% 30.07 in - ESE 13.8 mph - N/A   Unknown
2:00 AM 59 °F 39 °F 36% 30.05 in - ESE 12.7 mph - -  
2:00 AM 58.8 °F 39.4 °F 49% 30.05 in - ESE 12.7 mph 19.6 mph N/A   Unknown
3:00 AM 57.9 °F 41.5 °F 54% 30.04 in - ESE 13.8 mph - N/A   Unknown
4:00 AM 57.4 °F 42.4 °F 57% 30.04 in - ESE 13.8 mph - N/A   Unknown
5:00 AM 56.7 °F 42.4 °F 59% 30.03 in - ESE 11.5 mph - N/A   Unknown
6:00 AM 56.1 °F 43.0 °F 61% 30.04 in - ESE 10.4 mph - N/A   Unknown
7:00 AM 57.9 °F 46.9 °F 67% 30.05 in - ESE 10.4 mph - N/A   Unknown
8:00 AM 61 °F 52 °F 65% 30.05 in - SE 9.2 mph - -  
9:00 AM 64.6 °F 55.6 °F 73% 30.04 in - SE 10.4 mph - N/A   Unknown
10:00 AM 69.6 °F 59.0 °F 69% 30.02 in - SSE 10.4 mph - N/A   Unknown
11:00 AM 73.0 °F 60.3 °F 64% 30.02 in - SSW 8.1 mph - N/A   Unknown
12:00 PM 70.7 °F 59.9 °F 69% 30.01 in - SSW 12.7 mph - N/A   Unknown
1:00 PM 73.9 °F 60.3 °F 62% 29.99 in - SSW 9.2 mph - N/A   Unknown
2:00 PM 74 °F 62 °F 58% 29.98 in - SW 10.4 mph - -  
2:00 PM 73.9 °F 62.2 °F 67% 29.98 in - SW 10.4 mph - N/A   Unknown
3:00 PM 75.0 °F 61.3 °F 62% 29.96 in - WSW 6.9 mph - N/A   Unknown
4:00 PM 74.3 °F 61.3 °F 64% 29.96 in - West 5.8 mph - N/A   Unknown
5:00 PM 77.4 °F 62.6 °F 60% 29.95 in - WSW 4.6 mph - N/A   Unknown
6:00 PM 79.0 °F 61.3 °F 55% 29.93 in - South 6.9 mph - N/A   Unknown
7:00 PM 78.8 °F 60.1 °F 53% 29.90 in - South 6.9 mph - N/A   Unknown
8:00 PM 77 °F 60 °F 46% 29.91 in - SSW 4.6 mph - -  
8:00 PM 77.0 °F 60.1 °F 56% 29.91 in - SSW 4.6 mph - N/A   Unknown
9:00 PM 75.2 °F 60.4 °F 60% 29.91 in - SSE 4.6 mph - N/A   Unknown
10:00 PM 73.4 °F 59.5 °F 62% 29.92 in - SSE 6.9 mph - N/A   Unknown
11:00 PM 70.9 °F 59.2 °F 66% 29.94 in - SSE 4.6 mph - N/A   Unknown